Weather reports worldwide

Advertisment
High Wycombe, United Kingdom (3660): temperature & dewpoint: 12.10.2018 18:00:00 - 18.10.2018 18:00:00 (BST)High Wycombe, United Kingdom (3660): wind speed & gusts: 12.10.2018 18:00:00 - 18.10.2018 18:00:00 (BST)High Wycombe, United Kingdom (3660): wind direction: 12.10.2018 18:00:00 - 18.10.2018 18:00:00 (BST)High Wycombe, United Kingdom (3660): reduced air pressure: 12.10.2018 18:00:00 - 18.10.2018 18:00:00 (BST)High Wycombe, United Kingdom (3660): visibility: 12.10.2018 18:00:00 - 18.10.2018 18:00:00 (BST)High Wycombe, United Kingdom (3660): precipitation: 12.10.2018 18:00:00 - 18.10.2018 18:00:00 (BST)
Date & Time tt [°C] td [°C] ff [km/h] ff [kn] fx [km/h] fx [kn] dd ppp [hPa] vv [km] rr [mm]
18.10.2018 18:00:00 - - - - - - - - - -
18.10.2018 17:00:00 12,2 8,1 11 6 - - NE 1026,8 35 0,0
18.10.2018 16:00:00 12,8 7,7 8 4 - - ENE 1026,9 30 0,0
18.10.2018 15:00:00 12,8 7,8 9 5 - - E 1027,2 45 0,0
18.10.2018 14:00:00 12,7 7,6 15 8 - - E 1027,4 35 0,0
18.10.2018 13:00:00 12,7 8,5 16 9 - - E 1027,7 30 0,0
18.10.2018 12:00:00 13,0 10,6 11 6 - - E 1028,0 25 0,0
18.10.2018 11:00:00 10,2 9,1 11 6 - - ENE 1028,4 9 0,0
18.10.2018 10:00:00 9,2 9,0 9 5 - - ENE 1028,2 6 0,0
18.10.2018 09:00:00 8,6 8,6 11 6 - - NE 1027,6 2,6 0,0
18.10.2018 08:00:00 7,6 7,6 8 4 - - NE 1027,2 3,3 0,0
18.10.2018 07:00:00 7,9 7,7 8 4 - - NNE 1026,5 8 0,0
18.10.2018 06:00:00 8,1 7,8 4 2 - - NE 1026,2 5 0,0
18.10.2018 05:00:00 8,6 8,1 8 4 - - NNE 1026,3 6 0,0
18.10.2018 04:00:00 9,9 8,9 5 3 - - NE 1026,0 10 0,0
18.10.2018 03:00:00 9,7 8,8 9 5 - - NE 1025,9 9 0,0
18.10.2018 02:00:00 10,4 9,2 9 5 - - NNE 1025,7 12 0,0
18.10.2018 01:00:00 10,7 9,7 5 3 - - NE 1025,4 10 0,0
18.10.2018 00:00:00 11,1 10,0 8 4 - - NNE 1025,1 10 0,0
17.10.2018 23:00:00 11,8 10,8 2 1 - - N 1024,8 10 0,0
17.10.2018 22:00:00 12,0 10,7 2 1 - - NNE 1024,2 12 0,0
17.10.2018 21:00:00 11,8 10,6 4 2 - - NE 1023,4 7 0,0
17.10.2018 20:00:00 12,2 10,6 4 2 - - NE 1022,5 10 0,0
17.10.2018 19:00:00 12,5 11,2 2 1 - - NE 1021,9 16 0,0
17.10.2018 18:00:00 13,3 11,3 0 0 - - N 1021,0 18 0,0
17.10.2018 17:00:00 13,7 11,3 4 2 - - NNE 1020,6 17 0,0
17.10.2018 16:00:00 14,5 11,1 4 2 - - NNE 1020,2 35 0,0
17.10.2018 15:00:00 14,9 12,1 2 1 - - NNE 1019,9 17 0,0
17.10.2018 14:00:00 14,6 12,5 4 2 - - NNE 1019,5 25 0,0
17.10.2018 13:00:00 14,1 12,2 2 1 - - NW 1019,5 27 0,0
17.10.2018 12:00:00 13,7 12,1 4 2 - - WNW 1019,4 20 0,0
17.10.2018 11:00:00 13,0 13,0 2 1 - - WNW 1019,2 7 0,0
17.10.2018 10:00:00 11,6 11,6 0 0 - - N 1019,1 2,0 0,0
17.10.2018 09:00:00 11,2 11,2 2 1 - - SW 1018,5 3,2 0,2
17.10.2018 08:00:00 11,0 11,0 2 1 - - SSW 1018,1 1,3 0,4
17.10.2018 07:00:00 11,1 11,1 4 2 - - SW 1017,6 3,4 0,6
17.10.2018 06:00:00 10,8 10,7 8 4 - - SW 1017,3 2,7 0,2
17.10.2018 05:00:00 10,6 10,4 4 2 - - SW 1017,2 6 0,0
17.10.2018 04:00:00 10,4 10,3 4 2 - - SSW 1017,1 9 0,0
17.10.2018 03:00:00 10,1 10,1 5 3 - - SSW 1017,2 6 0,0
17.10.2018 02:00:00 10,3 10,2 8 4 - - SSW 1017,1 9 0,0
17.10.2018 01:00:00 10,7 10,1 5 3 - - SW 1017,4 23 0,0
17.10.2018 00:00:00 11,1 10,3 9 5 - - SSW 1017,2 14 0,0
16.10.2018 23:00:00 11,4 10,5 9 5 - - SW 1017,3 13 0,0
16.10.2018 22:00:00 11,7 10,3 9 5 - - SW 1017,3 27 0,0
16.10.2018 21:00:00 12,3 11,0 8 4 - - SSW 1016,9 26 0,0
16.10.2018 20:00:00 13,6 12,5 11 6 - - SW 1016,5 16 0,0
16.10.2018 19:00:00 14,3 13,8 9 5 - - SSW 1016,2 4,9 0,0
16.10.2018 18:00:00 14,6 14,1 9 5 - - SW 1015,8 6 0,4
16.10.2018 17:00:00 15,5 14,1 9 5 - - SSW 1015,4 9 0,0
16.10.2018 16:00:00 15,3 14,2 9 5 - - SW 1015,6 7 0,0
16.10.2018 15:00:00 15,6 14,5 5 3 - - WSW 1015,4 7 0,0
16.10.2018 14:00:00 16,4 14,7 9 5 - - SSW 1015,3 11 0,0
16.10.2018 13:00:00 15,5 14,6 9 5 - - SW 1015,5 6 0,0
16.10.2018 12:00:00 14,6 14,2 11 6 - - S 1015,5 4,0 0,0
16.10.2018 11:00:00 13,8 13,8 11 6 - - S 1015,5 1,9 0,0
16.10.2018 10:00:00 13,5 13,5 8 4 - - S 1016,0 1,0 0,0
16.10.2018 09:00:00 13,2 13,2 8 4 - - SSW 1015,9 2,3 0,0
16.10.2018 08:00:00 13,0 13,0 8 4 - - S 1015,6 2,3 0,0
16.10.2018 07:00:00 13,2 13,2 5 3 - - SSE 1015,1 0,3 0,2
16.10.2018 06:00:00 13,0 13,0 9 5 - - SE 1014,9 0,2 0,0
16.10.2018 05:00:00 12,8 12,8 8 4 - - SE 1014,6 0,3 0,0
16.10.2018 04:00:00 12,8 12,8 9 5 - - SE 1014,6 0,9 0,0
16.10.2018 03:00:00 12,6 12,6 9 5 - - SE 1014,9 0,4 0,0
16.10.2018 02:00:00 12,1 12,1 9 5 - - SE 1015,3 0,1 0,0
16.10.2018 01:00:00 11,7 11,7 11 6 - - SE 1015,3 0,1 0,0
16.10.2018 00:00:00 11,3 11,3 9 5 - - ESE 1015,4 0,1 0,0
15.10.2018 23:00:00 11,3 11,3 8 4 - - E 1015,1 0,1 0,0
15.10.2018 22:00:00 11,4 11,4 15 8 - - E 1014,6 0,1 0,0
15.10.2018 21:00:00 11,3 11,3 15 8 - - E 1014,5 1,4 0,0
15.10.2018 20:00:00 11,2 11,2 15 8 - - E 1014,4 2,9 0,0
15.10.2018 19:00:00 11,4 11,4 9 5 - - ENE 1014,2 2,4 0,0
15.10.2018 18:00:00 11,4 11,4 11 6 - - E 1013,6 2,1 0,0
15.10.2018 17:00:00 11,5 11,4 15 8 - - E 1013,1 5 0,0
15.10.2018 16:00:00 11,4 11,3 11 6 - - E 1012,5 3,9 0,2
15.10.2018 15:00:00 11,3 11,2 9 5 - - ENE 1012,3 2,7 0,0
15.10.2018 14:00:00 11,7 11,6 9 5 - - ENE 1011,7 4,3 0,0
15.10.2018 13:00:00 11,2 11,2 11 6 - - ENE 1011,8 2,7 0,0
15.10.2018 12:00:00 10,8 10,8 9 5 - - ENE 1011,6 3,8 0,0
15.10.2018 11:00:00 10,5 10,5 11 6 - - NE 1011,0 3,2 0,0
15.10.2018 10:00:00 10,2 10,2 13 7 - - NNE 1010,5 2,7 0,2
15.10.2018 09:00:00 9,9 9,9 15 8 - - NE 1009,8 3,9 0,0
15.10.2018 08:00:00 9,9 9,9 15 8 - - NNE 1009,6 2,6 0,2
15.10.2018 07:00:00 9,9 9,9 8 4 - - NNE 1009,4 3,9 0,4
15.10.2018 06:00:00 9,7 9,7 9 5 - - ENE 1008,7 2,0 0,0
15.10.2018 05:00:00 9,3 9,3 18 10 - - ENE 1007,8 2,8 0,0
15.10.2018 04:00:00 9,1 9,1 13 7 - - NE 1008,0 7 1,0
15.10.2018 03:00:00 9,1 9,0 9 5 - - NE 1009,7 5 0,6
15.10.2018 02:00:00 8,9 8,8 9 5 - - NNE 1009,7 9 1,2
15.10.2018 01:00:00 8,6 8,6 11 6 - - NE 1009,4 5 2,2
15.10.2018 00:00:00 8,4 8,3 13 7 - - NE 1009,3 3,7 3,0
14.10.2018 23:00:00 8,2 8,1 16 9 - - NE 1009,3 7 0,6
14.10.2018 22:00:00 8,0 7,9 16 9 - - NE 1009,3 9 0,2
14.10.2018 21:00:00 7,8 7,7 16 9 - - NE 1009,8 5 0,2
14.10.2018 20:00:00 7,8 7,7 16 9 - - NNE 1009,7 5 0,4
14.10.2018 19:00:00 8,0 7,9 15 8 - - NNE 1009,1 4,5 0,2
14.10.2018 18:00:00 8,0 7,7 15 8 - - NNE 1008,6 6 0,0
14.10.2018 17:00:00 8,4 8,0 21 11 - - NNE 1007,8 50 0,2
14.10.2018 16:00:00 9,1 8,8 21 11 - - NNE 1007,4 5 0,4
14.10.2018 15:00:00 9,5 9,1 16 9 - - NNE 1007,0 9 0,0
14.10.2018 14:00:00 10,3 10,2 16 9 - - N 1006,4 17 1,4
14.10.2018 13:00:00 10,6 10,4 21 11 - - NNE 1005,8 28 0,2
14.10.2018 12:00:00 10,7 10,7 13 7 - - NNW 1007,2 9 2,6
14.10.2018 11:00:00 11,1 11,0 16 9 - - N 1006,3 7 3,6
14.10.2018 10:00:00 11,4 11,2 9 5 - - NNE 1006,2 18 1,6
14.10.2018 09:00:00 11,6 11,6 9 5 - - NNE 1006,0 7 4,0
14.10.2018 08:00:00 11,4 11,2 9 5 - - N 1005,2 2,6 7,0
14.10.2018 07:00:00 11,8 11,7 9 5 - - NNW 1005,6 4,8 2,6
14.10.2018 06:00:00 12,1 11,9 9 5 - - WNW 1005,8 11 2,0
14.10.2018 05:00:00 12,6 11,5 9 5 - - W 1006,7 13 0,2
14.10.2018 04:00:00 13,6 11,5 9 5 - - W 1006,6 40 0,0
14.10.2018 03:00:00 14,4 13,4 8 4 - - W 1006,8 40 0,0
14.10.2018 02:00:00 15,0 13,4 13 7 - - SSW 1006,5 45 0,0
14.10.2018 01:00:00 16,0 13,4 16 9 - - WSW 1006,6 7 0,0
14.10.2018 00:00:00 17,6 15,3 16 9 - - SSW 1006,3 19 0,0
13.10.2018 23:00:00 18,1 15,1 16 9 - - SSW 1006,7 15 0,0
13.10.2018 22:00:00 18,6 15,1 18 10 - - SSW 1007,0 17 0,0
13.10.2018 21:00:00 18,8 14,9 21 11 - - SSW 1007,1 26 0,0
13.10.2018 20:00:00 19,8 14,8 21 11 46 25 SSW 1007,2 26 0,0
13.10.2018 19:00:00 19,9 14,7 18 10 46 25 SSW 1006,8 29 0,0
13.10.2018 18:00:00 20,1 14,6 21 11 - - SSW 1006,2 40 0,0
13.10.2018 17:00:00 20,7 14,9 22 12 54 29 S 1005,9 35 0,0
13.10.2018 16:00:00 21,4 15,0 26 14 52 28 SSW 1006,5 21 0,0
13.10.2018 15:00:00 21,4 15,2 26 14 52 28 SSW 1006,4 20 0,0
13.10.2018 14:00:00 21,3 14,9 24 13 48 26 SSW 1007,3 40 0,0
13.10.2018 13:00:00 20,5 13,7 24 13 46 25 S 1008,1 40 0,0
13.10.2018 12:00:00 19,7 15,2 18 10 - - S 1009,0 40 0,0
13.10.2018 11:00:00 17,4 15,1 16 9 - - S 1010,0 30 0,0
13.10.2018 10:00:00 15,2 14,6 16 9 48 26 S 1010,9 7 1,4
13.10.2018 09:00:00 17,6 13,7 21 11 - - S 1010,3 28 0,0
13.10.2018 08:00:00 17,3 12,9 18 10 - - S 1009,5 45 0,0
13.10.2018 07:00:00 18,2 13,4 21 11 - - S 1009,4 50 0,0
13.10.2018 06:00:00 17,7 14,8 21 11 - - SSW 1009,5 35 0,2
13.10.2018 05:00:00 17,3 14,8 18 10 - - SSW 1010,0 6 0,0
13.10.2018 04:00:00 16,9 15,3 16 9 - - S 1010,2 30 0,2
13.10.2018 03:00:00 16,1 15,4 18 10 52 28 SSW 1010,8 4,2 0,0
13.10.2018 02:00:00 17,5 15,3 24 13 52 28 SSW 1010,7 4,1 0,0
13.10.2018 01:00:00 16,6 15,1 21 11 52 28 SSW 1011,0 14 0,0
13.10.2018 00:00:00 17,0 15,0 26 14 54 29 SSW 1010,5 16 0,0
12.10.2018 23:00:00 18,3 14,1 24 13 52 28 SSW 1010,4 20 0,0
12.10.2018 22:00:00 18,2 14,0 22 12 59 32 SSW 1010,2 16 0,0
12.10.2018 21:00:00 18,1 13,7 29 16 63 34 SSW 1009,8 11 0,0
12.10.2018 20:00:00 18,7 12,9 22 12 68 37 SSW 1009,4 29 0,0
12.10.2018 19:00:00 18,1 13,7 22 12 55 30 SSW 1009,0 19 0,0
12.10.2018 18:00:00 18,2 13,5 28 15 65 35 SSW 1008,5 16 0,0

tt = temperature
td = dewpoint
ff = wind speed
fx = gusts
dd = wind direction
ppp = reduced air pressure
vv = visibility
rr = precipitation

Next stations